Wind_Speed
21 23 24 25 26 25 24 24 23 23 23 21 19 18 17 16 15 13 13 12 11 9 8 7 6 6 4 4 3 3 2 3 4 5 6 6 7 8 10 11 12 13 14 15
21 23 24 25 26 25 25 25 24 23 22 20 20 18 17 16 15 14 13 12 11 10 8 7 7 6 5 4 4 4 3 3 4 5 6 7 8 9 10 10 11 12 14 16
20 22 24 25 26 26 26 26 24 23 22 21 21 20 19 18 17 15 13 13 12 10 9 8 8 7 6 5 5 5 4 4 4 5 6 7 8 9 10 10 11 13 14 15
21 22 23 24 25 25 25 26 25 24 22 22 22 20 20 19 18 16 14 13 12 11 10 9 8 8 7 7 6 6 5 4 4 5 6 7 8 9 9 10 11 13 14 15
20 22 22 23 24 25 25 25 25 24 23 22 22 20 19 18 18 17 15 13 13 12 11 10 9 9 8 8 7 7 6 5 4 4 5 6 7 8 9 10 11 12 13 14
19 20 21 22 23 25 24 24 24 24 24 22 22 21 20 18 17 17 16 14 13 12 12 12 11 10 9 9 8 8 6 5 4 4 5 5 6 7 8 9 11 12 12 13
18 19 20 21 22 24 24 24 23 23 24 23 22 21 20 18 18 17 16 15 14 13 13 12 12 11 11 10 9 8 7 6 5 4 4 4 5 6 7 9 10 11 12 13
16 18 19 21 21 22 23 24 23 22 23 22 22 21 19 19 18 18 17 17 15 14 14 13 13 12 11 11 10 10 8 7 5 4 3 3 4 5 6 8 9 10 11 12
15 16 18 20 20 21 22 22 22 21 21 21 20 19 18 18 18 18 17 17 15 15 15 15 14 13 13 12 11 10 9 8 6 4 3 2 2 3 4 6 8 9 10 11
15 16 17 18 20 20 21 22 21 20 19 20 20 19 18 18 18 17 17 16 16 15 15 15 15 14 14 13 12 11 10 9 7 5 4 2 1 2 3 5 6 8 9 10
14 15 16 18 18 19 20 21 21 21 20 19 18 19 18 18 17 17 16 16 16 15 15 15 15 15 14 14 13 12 11 9 8 6 5 3 1 1 2 4 5 6 8 9
14 15 15 16 18 19 19 20 21 21 20 19 18 18 19 18 17 17 16 16 16 16 16 16 15 15 15 15 14 13 12 10 9 7 6 4 3 2 2 3 4 6 7 8
14 15 15 16 17 18 18 19 21 21 20 20 20 18 19 19 18 18 17 16 16 16 16 16 16 16 16 16 15 13 12 11 10 8 7 5 4 3 3 4 5 6 7 8
14 15 15 14 14 15 17 18 19 20 20 20 19 19 18 18 18 18 17 17 17 17 17 17 17 17 17 16 15 14 13 12 11 9 8 6 5 5 5 5 6 7 8 8
14 14 14 15 15 15 18 18 18 19 19 19 19 20 20 19 19 18 17 17 17 17 17 17 18 17 17 17 16 15 14 13 11 10 9 8 7 7 7 7 8 8 9 10
15 14 14 14 14 15 17 18 19 19 19 18 19 20 21 20 20 19 18 18 18 18 18 18 19 19 18 17 16 15 15 14 12 11 10 10 9 9 9 9 10 10 11 12
15 14 13 13 14 15 16 16 16 17 17 18 19 20 21 21 20 19 19 19 19 19 19 19 19 19 18 17 17 16 15 14 13 12 11 11 11 11 11 11 12 12 13 13
15 15 14 14 14 15 14 15 16 16 17 18 19 21 22 21 21 21 20 20 20 20 19 19 20 19 19 18 18 17 16 15 14 13 13 12 12 12 13 13 13 14 15 15
16 16 15 15 14 14 15 15 16 16 17 17 19 20 21 21 21 20 20 20 20 20 20 20 20 20 19 19 18 17 17 16 15 15 14 14 14 14 14 15 15 16 16 17
16 17 16 15 15 14 14 16 16 16 15 16 18 19 19 20 19 19 20 21 21 21 21 21 21 20 19 19 18 18 17 17 16 16 16 16 16 16 16 17 18 18 19 20
18 18 17 16 16 15 15 16 17 16 16 17 18 19 20 20 19 20 22 22 22 22 21 21 21 20 20 19 19 18 18 18 17 17 17 17 18 18 18 19 20 20 21 22
20 20 19 18 17 15 16 17 18 17 18 18 19 20 20 20 20 21 22 22 22 22 21 21 21 21 20 20 19 19 19 19 18 18 19 19 20 20 20 21 22 23 24 25
21 20 20 19 18 17 18 19 19 19 19 19 19 20 20 20 20 21 21 22 22 22 22 22 22 21 21 21 21 21 20 20 20 20 21 21 22 22 23 23 24 25 26 27
22 21 21 21 19 20 20 20 20 19 19 20 19 20 20 20 20 20 20 21 21 22 22 22 22 21 21 22 22 22 22 22 22 22 23 23 23 24 25 25 27 28 29 30
24 23 22 22 22 22 22 22 22 21 21 20 20 20 20 21 20 20 20 20 21 21 22 22 22 22 23 23 23 23 23 23 24 24 25 25 26 26 27 28 29 31 32 33
25 24 23 23 23 23 23 23 23 23 22 22 22 21 21 21 21 21 21 21 21 22 22 23 23 23 24 24 25 25 25 25 26 26 26 27 28 29 30 31 32 33 35 36
Wind_Direction
220 218 216 214 215 214 214 213 211 212 212 210 209 206 203 203 200 198 198 196 190 190 188 187 182 173 162 153 149 136 114 92 71 58 48 42 36 32 31 32 32 32 33 33
216 215 213 212 211 212 213 212 213 214 213 209 205 202 202 202 202 200 198 195 194 193 187 187 184 179 172 162 155 145 134 110 85 71 59 51 45 40 37 36 36 37 38 36
212 211 210 210 210 210 211 211 213 214 212 211 208 209 206 205 205 203 198 197 196 195 192 191 189 188 180 172 163 154 143 121 98 81 70 61 52 45 42 44 43 42 41 38
210 209 208 207 208 207 209 209 210 210 212 212 210 209 206 205 205 206 203 201 197 197 198 196 192 190 183 176 169 161 150 133 112 93 79 67 57 51 49 48 46 45 43 39
209 208 206 206 206 206 208 207 209 210 212 211 210 208 208 204 202 205 206 206 202 201 202 201 196 190 183 177 172 167 159 146 127 105 88 72 60 55 52 49 47 45 42 39
208 208 208 206 205 205 204 205 208 210 210 213 212 211 210 209 206 205 206 208 208 206 204 203 199 193 187 182 178 174 168 160 143 121 98 75 61 56 52 49 46 44 41 39
207 208 206 204 203 203 202 202 204 206 210 214 212 213 212 211 209 209 209 210 211 206 203 201 199 196 194 191 188 183 178 170 156 135 108 79 64 56 50 47 45 43 41 40
206 207 205 204 203 203 204 203 203 205 210 211 211 211 210 210 211 212 212 212 212 209 204 201 200 199 198 196 193 189 183 178 167 153 129 90 66 56 48 45 43 41 40 40
200 203 201 201 201 202 202 203 203 206 207 209 210 208 209 208 209 210 210 211 210 209 208 204 203 201 199 198 196 193 191 189 181 172 158 121 70 54 47 44 41 39 39 38
194 197 197 197 200 203 203 202 204 206 204 208 209 209 206 206 208 210 210 211 208 210 209 205 204 202 202 201 199 198 198 196 191 188 183 167 93 45 39 36 33 33 33 31
193 193 194 196 200 199 201 203 203 204 205 204 210 209 204 207 209 209 210 210 209 207 206 205 204 204 203 200 199 199 200 200 197 196 198 202 222 337 11 20 21 22 23 22
191 192 196 198 198 200 201 200 202 203 207 207 205 205 204 208 206 206 206 208 207 207 209 208 207 205 203 200 199 200 203 204 204 204 208 217 233 275 326 345 352 360 6 8
191 192 193 195 200 204 203 201 202 205 209 208 205 203 205 206 206 204 205 208 208 210 210 210 209 206 203 201 201 203 206 208 209 211 215 223 236 264 297 319 330 341 350 355
193 193 196 200 204 206 206 205 205 207 207 205 204 203 206 204 205 205 206 207 209 211 212 210 208 204 203 203 203 206 209 212 215 218 224 231 243 265 287 307 316 325 333 339
198 197 200 204 207 210 212 213 209 207 204 201 198 200 203 205 205 207 208 209 210 210 210 208 207 206 205 205 206 209 212 216 220 225 230 238 249 266 282 296 306 312 319 325
202 204 207 210 213 211 211 210 207 203 201 201 201 200 203 207 209 209 210 211 210 210 209 208 208 207 205 207 210 213 215 219 223 229 235 244 255 268 279 288 297 303 310 315
207 207 211 217 218 214 211 209 209 207 208 211 208 205 207 211 213 212 212 211 210 210 211 210 208 207 208 212 215 217 219 222 228 235 241 249 259 269 279 286 292 298 303 307
205 207 214 220 219 218 212 212 212 212 213 211 207 206 208 211 210 212 212 211 211 212 213 212 211 212 214 217 219 221 224 227 233 239 245 252 261 270 279 285 290 294 298 301
211 216 220 224 224 219 213 214 216 216 213 213 212 209 212 213 214 214 215 215 216 216 217 217 217 216 218 221 223 225 229 233 237 242 249 256 264 272 279 284 288 292 295 298
220 221 225 226 222 220 212 214 218 219 216 216 217 214 216 217 218 217 219 219 219 219 220 220 221 220 222 225 228 231 234 238 242 247 253 260 267 274 279 283 287 290 293 296
225 227 230 229 226 223 221 221 221 222 218 219 221 221 221 221 222 222 223 223 222 222 223 224 222 222 224 228 232 235 239 243 247 252 257 263 269 274 279 282 286 289 293 295
228 230 231 231 229 227 229 228 225 223 222 222 224 225 226 225 224 225 225 226 226 225 225 224 224 225 228 231 234 238 243 248 252 256 261 266 271 275 279 283 286 288 292 294
230 231 232 232 231 229 229 229 227 225 225 226 226 226 227 227 228 228 226 225 226 226 226 225 226 228 231 234 239 243 247 252 257 259 263 268 272 276 280 283 286 288 291 293
234 233 235 234 232 230 230 231 229 229 230 230 229 229 229 229 229 229 229 228 228 228 229 229 230 232 235 239 243 248 252 256 260 262 266 269 273 277 281 283 286 289 291 293
235 237 238 237 234 233 232 232 232 232 232 232 232 232 231 230 230 231 232 232 231 232 231 232 234 237 241 244 248 252 256 259 262 265 268 271 275 278 281 284 287 289 292 293
235 237 237 235 234 234 233 234 235 235 234 234 234 234 233 232 232 233 234 234 235 236 236 237 239 241 245 248 251 255 258 261 265 268 270 274 277 280 282 285 288 290 292 294
Height
5821 5825 5828 5833 5837 5841 5845 5849 5852 5855 5858 5862 5864 5867 5869 5872 5874 5876 5878 5880 5882 5884 5885 5887 5888 5889 5890 5890 5891 5892 5892 5892 5891 5891 5890 5889 5887 5886 5883 5881 5879 5877 5874 5871
5818 5821 5825 5828 5832 5837 5841 5845 5849 5852 5855 5859 5862 5865 5868 5870 5872 5875 5877 5879 5881 5883 5884 5886 5887 5888 5889 5890 5891 5892 5892 5892 5892 5891 5891 5889 5888 5886 5885 5882 5880 5878 5875 5872
5814 5818 5821 5825 5829 5833 5838 5842 5846 5850 5853 5857 5860 5863 5866 5868 5870 5873 5875 5877 5880 5882 5884 5885 5887 5888 5889 5890 5891 5892 5893 5893 5892 5892 5891 5890 5889 5887 5886 5884 5882 5879 5877 5874
5811 5814 5818 5822 5826 5831 5835 5838 5843 5847 5851 5854 5858 5861 5863 5866 5868 5871 5874 5876 5878 5880 5882 5884 5886 5887 5888 5890 5891 5892 5893 5893 5893 5893 5892 5892 5890 5889 5887 5885 5883 5881 5878 5876
5809 5812 5815 5819 5823 5828 5831 5836 5840 5844 5848 5852 5855 5858 5862 5863 5867 5870 5872 5875 5877 5879 5881 5883 5885 5886 5888 5889 5891 5892 5893 5893 5894 5893 5893 5892 5891 5890 5888 5886 5884 5882 5880 5877
5807 5810 5813 5817 5821 5825 5829 5834 5838 5842 5845 5850 5853 5856 5860 5862 5865 5867 5870 5873 5875 5877 5879 5881 5883 5885 5887 5888 5890 5892 5893 5893 5894 5894 5893 5893 5892 5891 5889 5888 5886 5884 5881 5879
5806 5809 5812 5815 5819 5823 5827 5832 5836 5839 5843 5847 5850 5853 5857 5860 5862 5865 5868 5871 5873 5876 5878 5880 5882 5884 5886 5888 5890 5891 5892 5893 5893 5894 5894 5893 5892 5891 5890 5889 5887 5885 5883 5881
5804 5808 5811 5814 5817 5821 5825 5830 5835 5839 5841 5845 5847 5850 5855 5857 5860 5862 5865 5868 5871 5874 5876 5878 5880 5883 5885 5887 5888 5890 5892 5892 5893 5893 5893 5893 5893 5892 5891 5890 5888 5886 5884 5882
5803 5807 5810 5813 5816 5819 5823 5827 5831 5836 5839 5842 5845 5849 5853 5855 5857 5860 5863 5866 5869 5872 5874 5876 5879 5881 5883 5885 5887 5889 5890 5892 5892 5893 5893 5893 5893 5892 5891 5890 5889 5887 5886 5884
5802 5806 5808 5811 5814 5818 5822 5825 5829 5833 5837 5840 5844 5847 5851 5853 5855 5858 5861 5864 5867 5870 5872 5874 5877 5879 5882 5884 5886 5888 5889 5890 5891 5892 5893 5893 5893 5892 5891 5891 5889 5888 5886 5885
5802 5805 5808 5811 5813 5816 5820 5823 5827 5831 5834 5839 5842 5847 5848 5851 5853 5856 5859 5862 5865 5867 5870 5872 5875 5877 5880 5882 5884 5886 5888 5889 5890 5891 5892 5892 5892 5892 5891 5890 5889 5888 5887 5885
5801 5804 5807 5809 5812 5815 5818 5821 5825 5829 5832 5835 5839 5846 5845 5848 5851 5853 5856 5859 5862 5865 5867 5870 5873 5875 5877 5880 5882 5884 5886 5888 5889 5890 5890 5891 5891 5891 5890 5890 5889 5888 5886 5885
5800 5803 5806 5808 5812 5814 5816 5819 5822 5826 5829 5833 5837 5843 5842 5845 5848 5851 5854 5857 5860 5862 5865 5868 5870 5873 5875 5878 5880 5882 5884 5886 5887 5888 5889 5889 5889 5890 5889 5889 5888 5887 5886 5884
5799 5802 5806 5808 5810 5812 5814 5817 5820 5823 5826 5830 5834 5838 5840 5843 5846 5849 5851 5854 5857 5860 5862 5865 5868 5870 5873 5875 5878 5880 5882 5884 5885 5886 5887 5887 5888 5888 5888 5887 5886 5885 5884 5883
5798 5801 5803 5805 5807 5810 5812 5815 5817 5820 5824 5828 5831 5834 5838 5840 5843 5846 5849 5852 5854 5857 5860 5862 5865 5868 5870 5873 5875 5877 5879 5881 5882 5883 5884 5885 5885 5886 5885 5885 5884 5883 5882 5881
5797 5799 5802 5804 5805 5807 5810 5812 5815 5818 5821 5825 5828 5832 5835 5837 5840 5843 5846 5849 5852 5855 5857 5860 5863 5865 5868 5870 5872 5875 5876 5878 5880 5881 5882 5882 5883 5883 5883 5882 5882 5881 5880 5878
5795 5798 5800 5802 5804 5805 5808 5811 5813 5816 5819 5822 5826 5830 5832 5834 5837 5840 5843 5846 5849 5852 5855 5857 5860 5862 5865 5867 5870 5872 5873 5875 5876 5877 5878 5879 5880 5880 5880 5879 5878 5878 5877 5875
5794 5796 5798 5800 5802 5804 5809 5809 5811 5814 5817 5820 5822 5825 5828 5831 5834 5837 5840 5843 5845 5848 5851 5854 5857 5859 5862 5864 5866 5868 5870 5871 5873 5874 5875 5876 5876 5876 5876 5875 5875 5874 5873 5871
5791 5794 5796 5798 5799 5802 5805 5807 5809 5812 5815 5817 5819 5822 5825 5828 5831 5834 5837 5839 5842 5845 5848 5851 5853 5856 5858 5861 5863 5865 5866 5868 5869 5870 5871 5871 5872 5872 5872 5871 5870 5870 5868 5867
5788 5791 5793 5795 5797 5800 5804 5805 5806 5810 5812 5814 5816 5819 5822 5824 5828 5832 5833 5836 5838 5841 5844 5847 5850 5852 5855 5857 5859 5861 5862 5863 5864 5865 5866 5867 5867 5867 5867 5866 5866 5865 5863 5862
5785 5787 5790 5792 5793 5797 5800 5801 5804 5808 5810 5811 5813 5816 5818 5821 5825 5827 5829 5831 5834 5837 5840 5843 5846 5848 5851 5853 5854 5856 5857 5859 5860 5861 5861 5862 5862 5862 5861 5861 5860 5859 5858 5856
5782 5784 5786 5788 5791 5796 5796 5798 5801 5803 5805 5807 5809 5812 5814 5817 5819 5822 5824 5827 5830 5833 5836 5839 5841 5844 5846 5848 5850 5851 5852 5854 5855 5855 5856 5856 5856 5856 5855 5855 5854 5852 5851 5849
5777 5780 5782 5785 5789 5790 5791 5794 5796 5798 5801 5803 5805 5808 5810 5813 5815 5818 5820 5823 5825 5828 5831 5834 5836 5839 5841 5843 5844 5846 5847 5848 5849 5849 5850 5850 5850 5850 5849 5848 5847 5845 5844 5842
5772 5775 5777 5780 5783 5785 5787 5789 5791 5794 5796 5799 5801 5804 5806 5808 5811 5813 5816 5818 5821 5823 5826 5829 5831 5833 5835 5837 5839 5840 5841 5842 5843 5843 5844 5843 5843 5843 5842 5841 5839 5838 5836 5834
5767 5769 5772 5775 5778 5779 5782 5784 5787 5789 5792 5794 5796 5799 5801 5804 5806 5809 5811 5813 5816 5818 5821 5823 5826 5828 5830 5831 5833 5834 5835 5836 5836 5836 5836 5836 5836 5835 5834 5833 5831 5829 5828 5825
5761 5764 5767 5769 5772 5774 5777 5779 5781 5784 5786 5789 5791 5794 5796 5799 5801 5804 5806 5808 5810 5813 5815 5818 5820 5822 5823 5825 5826 5827 5828 5829 5829 5829 5829 5828 5828 5827 5826 5824 5822 5820 5818 5816